ROMMA est une association bénévole à but non lucratif. Votre soutien est indispensable : ADHERER à ROMMA ou FAIRE un DON

Saint-Léger-les-Mélèzes - (05, Hautes-Alpes)

Champsaur (1245 m)   Longitude: 6° 11' 42" E    Latitude: 44° 38' 38" N Station partenaire n°51
 

Détail journalier du     <<     >>

Température Precipitation Humidité Vent Dir Rafale Dir. rafale Ensol.
Heure (°C) (mm) (%) (km/h) (km/h) (min)
01:00 6.60475S11S0
02:00 6.80475S11SSE0
03:00 6.40464S10S0
04:00 6.30465S13S0
05:00 6.20473SSO8S0
06:00 4.70534S10S0
07:00 4.60533S6S0
08:00 4.50533S8S0
09:00 4.60562S8S0
10:00 8.10411NE13ESE0
11:00 10.90392SSO11OSO0
12:00 12.80372OSO11ONO30
13:00 13.30374SSO19O60
14:00 13.80345OSO24SO60
15:00 12.80369O32O60
16:00 12.10429O37O60
17:00 11.20478OSO31O50
18:00 9.30528SO39O0
19:00 7.80578SO29O0
20:00 7.00604S18SSE0
21:00 6.70583S19S0
22:00 6.30583SSO15SSE0
23:00 5.80624SSO19SO0
minuit 4.60715SSO24SSE0

Graphique du 28-02-2019

 

Serveur OMMA